カタログに戻る

FENGYUN 1C DEB

運用中SSO
NORAD 35175·DEBRIS·🇨🇳 China

打ち上げ May 10, 1999 から Taiyuan Satellite Launch Center

Loading…

次のパス (今後24時間)

TLE

最新Source: Space-Track

元期: Sep 11, 2026, 18:32 UTC

1 35175U 99025DNF 26254.77271946  .00000362  00000-0  18140-3 0  9996
2 35175  98.5746 260.3396 0057197 207.0097 152.8101 14.21679956651140

AllMySatでFENGYUN 1C DEBをリアルタイム追跡

Download on the App Store